Location: Malvern Link
(52.1333°N, 2.3000°W)
Time: 15:13:11
(UTC+00:00)

DIWATA 2B (PO-101) - Pass Details

Date: 04 July 2022
Orbit: 583 x 599 km, 98.0° (Epoch: 19 August)

Event Time Altitude Azimuth Distance (km) Brightness Sun altitude
Exits shadow 02:04:00 12° 175° (S) 1,816 ? -11.2°
Maximum altitude 02:07:54 67° 257° (WSW) 657 ? -10.9°
Drops below altitude 10° 02:12:07 10° 341° (NNW) 1,953 ? -10.6°
Sets 02:14:19 0° 344° (NNW) 2,860 ? -10.5°
